CZ-3C DEB, 39339

Orbit data source: Space-Track

CZ-3C DEB, 39339 is space debris in HEO originally from a launch on Sun, 31 Oct 2010 UTC launched from the Xichang Space Center, China (XSC). Debris objects in space refer to the collection of defunct objects orbiting the Earth. Examples of debris include non-operational satellites, rocket bodies, and fragments generated from explosions, collisions, or faulty payload assembly.

Loading next visibility...
Identifier
39339, 2010-057D
Orbit
HEO
Country
Flag of CNCN / PRC
Related business
Manufacturer
CALT
Mission
Spacecraft
Bus & Motor
Unknown
Mass
Unknown
Launch date (UTC)
2010-10-31 (16 years ago)
Launch vehicle
Unknown
Launch site
Xichang Space Center, China (XSC)
Object type
Payload
Rocket body
Debris
Shape & HBR
Unknown shape, 0.3 m
Radar Cross Section
Medium (>0.1 m² and <1 m²)

Expand to show TLE details & history
Last TLE update: 4 days ago

TLE from 4 days ago
0 CZ-3C DEB
1 39339U 10057D   26261.04340141 -.00000134  00000-0 -21111-2 0  9992
2 39339  20.5317 228.6887 7195775 258.3790  22.7592  2.14573490101311
Epoch: 2026-09-18T01:02Z
TLE epoch observation values (Epoch: 2026-09-18T01:02:29.881Z)
Latitude
1.98675°
Longitude
-138.74758°
Altitude
9,155.607 km
Speed
5.968 km/s
True Right ascension
15h 35m 23s
True Declination
1° 58' 53"
Sunlit
Object was in daylight at epoch
Visualization orbit readout
Latitude
Unknown
Longitude
Unknown
Altitude
Unknown
Speed
Unknown
Apparent Right ascension
Unknown
Apparent Declination
Unknown
Sunlit
N/A
Visualization observer readout
Local Sidereal Time
08:58:43
Azimuth
Unknown
Elevation
Unknown
Doppler factor
Unknown
Orbital elements
Apogee altitude
37,291.415 km
Perigee altitude
743.336 km
Semi-major axis
25,395.513 km
Eccentricity
0.71958
Inclination
20.5317°
RAAN
228.6887°
Arg. of periapsis
258.379°
True anomaly
107.34543°
Mean anomaly
22.7592°
Eccentric anomaly
57.55081°
Mean motion
0.5363 °/min
Orbital period
671.27 mins
BSTAR
-0.0021111
Loading maneuver chart data...
Computing Atmospheric mass density...
Loading historical data...
Loading historical data...
Loading historical data...
Loading historical data...
Loading historical data...
Loading historical data...
Loading historical data...

Documentation

Showing up to 5 results
|